Content
SEND FEEDBACK

Daily
Averages
Monthly
Summary
United States of America

HARRISON, ARKANSAS


Home > North America > United States > Arkansas
Elevation: 1376 feet     Latitude: 36 16N     Longitude: 093 09W

WEATHER
 
SELECT A DAY
Number of Records: 204,709;   Date Range: 1/1/95 - 7/27/14
 
SHARE

PRINT THIS DATA

[ ← Previous Day ]
WEATHER ALMANAC - JANUARY 31, 2013
[ Next Day → ]
[ °C ]   °F
Weather ElementAverageHighLow
Temperature31.6 °F51.1 °F (12:53 pm)19.4 °F (10:53 pm)
Dewpoint18.3 °F25 °F (1:53 pm)6.8 °F (11:53 pm)
Humidity60.9 %81 % (2:53 am)32 % (12:53 pm)
Barometer30.17 in30.38 in (10:53 pm)30.03 in (3:53 am)
Wind Speed10.2 mph18.4 mph (3:53 pm)
Wind Gust28.8 mph (2:53 pm)
Weather ElementAverage
Visibility10 mi
Wind DirectionWSW (247.5 °)

Weather ElementTotal
Precipitation---
Heating Degree Days29.8 (Base 65)
Averaged from 24 records on January 31, 2013
WEATHER CONDITIONS BREAKOUT
WIND DIRECTION BREAKOUT
WEATHER BY HOUR - JANUARY 31, 2013
[ °C ]   °F
Local TimeTemperatureDewpointHumidityBarometerVisibilityWind DirectionWind SpeedGust SpeedPrecipitationEventsConditions
1:53 AM24.1 °F18.0 °F77 %30.04 in10.0 miWest (270°)3.5 mphClear
2:53 AM24.1 °F19.0 °F81 %30.05 in10.0 miWest (270°)4.6 mphClear
3:53 AM24.1 °F17.1 °F75 %30.03 in10.0 miCalmClear
4:53 AM25.0 °F17.1 °F72 %30.03 in10.0 miCalmClear
5:53 AM26.1 °F17.1 °F69 %30.04 in10.0 miCalmClear
6:53 AM24.1 °F18.0 °F77 %30.05 in10.0 miCalmClear
7:53 AM27.0 °F19.9 °F75 %30.05 in10.0 miESE (110°)5.8 mphClear
9:53 AM46.9 °F19.0 °F33 %30.06 in10.0 miWest (270°)13.8 mph20.7 mphClear
10:53 AM46.9 °F19.9 °F34 %30.08 in10.0 miNW (310°)13.8 mph23.0 mphClear
11:53 AM48.9 °F21.9 °F35 %30.08 in10.0 miWNW (290°)15.0 mph23.0 mphClear
12:53 PM51.1 °F21.9 °F32 %30.07 in10.0 miWest (280°)17.3 mph24.2 mphClear
1:53 PM50.0 °F25.0 °F38 %30.08 in10.0 miNNW (330°)12.7 mph23.0 mphClear
2:53 PM45.0 °F24.1 °F44 %30.11 in10.0 miNW (320°)17.3 mph28.8 mphPartly Cloudy
3:53 PM41.0 °F24.1 °F51 %30.17 in10.0 miNW (320°)18.4 mph26.5 mphMostly Cloudy
4:53 PM34.0 °F24.1 °F67 %30.23 in10.0 miNNW (330°)12.7 mph25.3 mphOvercast
5:53 PM30.0 °F21.0 °F69 %30.26 in10.0 miNNW (330°)15.0 mph20.7 mphOvercast
6:53 PM28.0 °F21.9 °F78 %30.31 in10.0 miNW (310°)11.5 mph0.00 inMostly Cloudy
7:24 PM28.4 °F21.2 °F74 %30.28 in10.0 miWNW (300°)9.2 mphOvercast
7:53 PM27.0 °F19.9 °F75 %30.34 in10.0 miNW (310°)11.5 mph19.6 mphOvercast
8:17 PM24.8 °F15.8 °F69 %30.31 in10.0 miNW (320°)12.7 mph23.0 mphScattered Clouds
8:53 PM23.0 °F10.0 °F58 %30.37 in10.0 miNW (320°)15.0 mph24.2 mphClear
9:53 PM21.2 °F8.6 °F58 %30.36 in10.0 miNW (320°)11.5 mph20.7 mphClear
10:53 PM19.4 °F8.6 °F63 %30.38 in10.0 miNW (310°)11.5 mphClear
11:53 PM19.4 °F6.8 °F58 %30.37 in10.0 miNW (320°)11.5 mphClear
Hourly data recorded from KHRO, located miles away from Harrison, Arkansas







STORIES FROM OUR PARTNERS